sat.trackr.live / text

‹ back to catalog

GPS BIIR-11 (PRN 19)

NORAD 28190 · 2004-009A

PAYLOAD ACTIVE UNKNOWN

§ Identity

Operator
Country
US
Launch date
2004-03-20
Launch site
AFETR
Launch vehicle
Mass (kg)
RCS (m²)
7.94

Purposes: earth_obs, nav

External: N2YO · Heavens-Above · Gunter

§ Orbital elements

Epoch: 2026-09-19T21:04:50.176128Z

Period
717.94 min
Inclination
54.7575°
Eccentricity
0.0118156
Mean motion
2.00573613 rev/d
Perigee alt
19,867.5 km
Apogee alt
20,495.1 km
Semi-major
26,559.5 km
B*
0.0000e+0
RAAN
271.8529°
Arg perigee
176.6687°
Mean anomaly
7.0371°
Rev number
16,484

§ Raw data

GPS BIIR-11 (PRN 19)1 28190U 04009A   26262.87835852  .00000023  00000+0  00000+0 0  99902 28190  54.7575 271.8529 0118156 176.6687   7.0371  2.00573613164840

JSON: /api/v1/satellites/28190 · /tle

For live sub-satellite position, see the globe view (requires WebGL).

§ Visibility from observer

Set your observer location to see the next 7 days of passes ≥ 10°. The values pass through the URL so the page stays shareable.

No JS? Fill the form by hand. The geolocation button needs JavaScript.